When you browse on this site, cookies collect data to enhance your experience and personalize the content and advertising you see.
Visit our Privacy Policy to learn more. By continuing to use the site, you agree to this use of cookies and data.
  • In Italy
  • List of Countries
  • For 7 days
  • Water Temperature
  • Satellite Maps
  • Weather Map
  • Weather Widgets
  • user-avatar
    Login

    Hourly Weather Filippovka

    Today, 24 April, Wednesday

    Time Temperature Precipitation Wind Pressure Humidity
    00:00 +11°C° 0 mm 3 mps 748 mmHg 61%
    01:00 +11°C° 0 mm 3 mps 748 mmHg 62%
    02:00 +10°C° 0 mm 3 mps 748 mmHg 64%
    03:00 +9°C° 0 mm 3 mps 748 mmHg 66%
    04:00 +9°C° 0 mm 3 mps 749 mmHg 67%
    05:00 +9°C° 0 mm 3 mps 749 mmHg 69%
    06:00 +9°C° 0 mm 3 mps 749 mmHg 70%
    07:00 +10°C° 0 mm 3 mps 749 mmHg 65%
    08:00 +12°C° 0 mm 3 mps 749 mmHg 60%
    09:00 +14°C° 0 mm 3 mps 749 mmHg 55%
    10:00 +16°C° 0 mm 3 mps 749 mmHg 50%
    11:00 +18°C° 0 mm 3 mps 749 mmHg 45%
    12:00 +19°C° 0 mm 3 mps 749 mmHg 41%
    13:00 +20°C° 0 mm 3 mps 749 mmHg 39%
    14:00 +20°C° 0 mm 3 mps 749 mmHg 37%
    15:00 +21°C° 0 mm 3 mps 749 mmHg 36%
    16:00 +21°C° 0 mm 3 mps 748 mmHg 37%
    17:00 +21°C° 0 mm 3 mps 748 mmHg 39%
    18:00 +20°C° 0 mm 3 mps 748 mmHg 40%
    19:00 +19°C° 0 mm 2 mps 748 mmHg 43%
    20:00 +17°C° 0 mm 2 mps 748 mmHg 46%
    21:00 +16°C° 0 mm 2 mps 748 mmHg 49%
    22:00 +15°C° 0 mm 2 mps 748 mmHg 51%
    23:00 +15°C° 0 mm 2 mps 748 mmHg 52%

    Tomorrow, 25 April, Thursday

    Time Temperature Precipitation Wind Pressure Humidity
    00:00 +14°C° 0 mm 2 mps 748 mmHg 54%
    01:00 +13°C° 0 mm 2 mps 748 mmHg 56%
    02:00 +13°C° 0 mm 2 mps 748 mmHg 57%
    03:00 +12°C° 0 mm 2 mps 748 mmHg 59%
    04:00 +12°C° 0 mm 2 mps 748 mmHg 61%
    05:00 +12°C° 0 mm 2 mps 748 mmHg 63%
    06:00 +12°C° 0 mm 2 mps 748 mmHg 65%
    07:00 +13°C° 0 mm 2 mps 749 mmHg 59%
    08:00 +15°C° 0 mm 2 mps 749 mmHg 54%
    09:00 +17°C° 0 mm 2 mps 749 mmHg 49%
    10:00 +19°C° 0 mm 3 mps 749 mmHg 45%
    11:00 +20°C° 0 mm 3 mps 749 mmHg 40%
    12:00 +21°C° 0 mm 3 mps 748 mmHg 36%
    13:00 +22°C° 0 mm 3 mps 748 mmHg 35%
    14:00 +22°C° 0 mm 3 mps 748 mmHg 34%
    15:00 +24°C° 0 mm 3 mps 748 mmHg 33%
    16:00 +23°C° 0 mm 2 mps 747 mmHg 35%
    17:00 +23°C° 0 mm 2 mps 747 mmHg 37%
    18:00 +23°C° 0 mm 2 mps 747 mmHg 38%
    19:00 +21°C° 0 mm 1 mps 747 mmHg 42%
    20:00 +20°C° 0 mm 1 mps 747 mmHg 46%
    21:00 +19°C° 0 mm 1 mps 747 mmHg 49%
    22:00 +18°C° 0 mm 1 mps 747 mmHg 50%
    23:00 +18°C° 0 mm 1 mps 747 mmHg 50%

    Day after tomorrow, 26 April, Friday

    Time Temperature Precipitation Wind Pressure Humidity
    00:00 +18°C° 0 mm 1 mps 747 mmHg 50%
    01:00 +16°C° 0.1 mm 1 mps 747 mmHg 52%
    02:00 +16°C° 0.1 mm 1 mps 746 mmHg 54%
    03:00 +15°C° 0.1 mm 1 mps 746 mmHg 56%
    04:00 +15°C° 0.2 mm 1 mps 746 mmHg 58%
    05:00 +14°C° 0.2 mm 1 mps 746 mmHg 61%
    06:00 +14°C° 0.2 mm 1 mps 746 mmHg 63%
    07:00 +15°C° 0.3 mm 1 mps 746 mmHg 59%
    08:00 +16°C° 0.3 mm 1 mps 746 mmHg 55%
    09:00 +19°C° 0.3 mm 1 mps 747 mmHg 50%
    10:00 +20°C° 0.1 mm 1 mps 746 mmHg 47%
    11:00 +20°C° 0.1 mm 2 mps 746 mmHg 44%
    12:00 +21°C° 0.1 mm 2 mps 746 mmHg 42%
    13:00 +21°C° 0 mm 2 mps 746 mmHg 43%
    14:00 +21°C° 0 mm 2 mps 746 mmHg 45%
    15:00 +20°C° 0 mm 2 mps 745 mmHg 47%
    16:00 +20°C° 0.1 mm 2 mps 745 mmHg 49%
    17:00 +20°C° 0.1 mm 2 mps 745 mmHg 52%
    18:00 +19°C° 0.1 mm 2 mps 744 mmHg 54%
    19:00 +18°C° 1.7 mm 2 mps 744 mmHg 61%
    20:00 +18°C° 1.7 mm 1 mps 744 mmHg 68%
    21:00 +15°C° 1.7 mm 1 mps 744 mmHg 75%
    22:00 +15°C° 0.3 mm 1 mps 744 mmHg 78%
    23:00 +14°C° 0.3 mm 2 mps 744 mmHg 81%

    27 April, Saturday

    Time Temperature Precipitation Wind Pressure Humidity
    00:00 +13°C° 0.3 mm 2 mps 743 mmHg 85%
    01:00 +13°C° 0.2 mm 2 mps 743 mmHg 83%
    02:00 +13°C° 0.2 mm 2 mps 743 mmHg 82%
    03:00 +13°C° 0.2 mm 2 mps 743 mmHg 80%
    04:00 +13°C° 0.1 mm 2 mps 743 mmHg 80%
    05:00 +13°C° 0.1 mm 2 mps 742 mmHg 80%
    06:00 +12°C° 0.1 mm 3 mps 742 mmHg 79%
    07:00 +13°C° 0 mm 3 mps 742 mmHg 74%
    08:00 +14°C° 0 mm 3 mps 742 mmHg 69%
    09:00 +17°C° 0 mm 3 mps 742 mmHg 64%
    10:00 +18°C° 0 mm 3 mps 741 mmHg 56%
    11:00 +19°C° 0 mm 4 mps 741 mmHg 49%
    12:00 +21°C° 0 mm 4 mps 741 mmHg 41%
    13:00 +20°C° 0 mm 3 mps 741 mmHg 44%
    14:00 +20°C° 0 mm 3 mps 740 mmHg 48%
    15:00 +19°C° 0 mm 2 mps 740 mmHg 51%
    16:00 +19°C° 0 mm 2 mps 740 mmHg 54%
    17:00 +19°C° 0 mm 2 mps 739 mmHg 56%
    18:00 +19°C° 0 mm 2 mps 739 mmHg 59%
    19:00 +17°C° 0.4 mm 2 mps 739 mmHg 63%
    20:00 +16°C° 0.4 mm 2 mps 739 mmHg 67%
    21:00 +15°C° 0.4 mm 2 mps 739 mmHg 72%
    22:00 +14°C° 0.1 mm 2 mps 739 mmHg 73%
    23:00 +14°C° 0.1 mm 2 mps 739 mmHg 75%

    28 April, Sunday

    Time Temperature Precipitation Wind Pressure Humidity
    00:00 +13°C° 0.1 mm 2 mps 738 mmHg 77%
    01:00 +13°C° 0.2 mm 2 mps 738 mmHg 79%
    02:00 +13°C° 0.2 mm 2 mps 738 mmHg 81%
    03:00 +13°C° 0.2 mm 2 mps 738 mmHg 83%
    04:00 +13°C° 0.6 mm 2 mps 738 mmHg 85%
    05:00 +13°C° 0.6 mm 2 mps 738 mmHg 88%
    06:00 +13°C° 0.6 mm 2 mps 738 mmHg 90%
    07:00 +14°C° 0.1 mm 2 mps 738 mmHg 86%
    08:00 +14°C° 0.1 mm 2 mps 738 mmHg 82%
    09:00 +15°C° 0.1 mm 2 mps 738 mmHg 78%
    10:00 +16°C° 0.6 mm 2 mps 739 mmHg 75%
    11:00 +17°C° 0.6 mm 3 mps 739 mmHg 72%
    12:00 +17°C° 0.6 mm 3 mps 739 mmHg 69%
    13:00 +17°C° 0.7 mm 4 mps 739 mmHg 71%
    14:00 +15°C° 0.7 mm 5 mps 740 mmHg 73%
    15:00 +14°C° 0.7 mm 6 mps 740 mmHg 74%
    16:00 +14°C° 0 mm 6 mps 740 mmHg 72%
    17:00 +14°C° 0 mm 6 mps 740 mmHg 70%
    18:00 +13°C° 0 mm 6 mps 740 mmHg 67%
    19:00 +11°C° 0 mm 6 mps 741 mmHg 67%
    20:00 +10°C° 0 mm 5 mps 741 mmHg 67%
    21:00 +9°C° 0 mm 5 mps 742 mmHg 67%
    22:00 +8°C° 0 mm 5 mps 742 mmHg 65%
    23:00 +7°C° 0 mm 5 mps 742 mmHg 63%

    29 April, Monday

    Time Temperature Precipitation Wind Pressure Humidity
    00:00 +5°C° 0 mm 6 mps 743 mmHg 61%
    01:00 +5°C° 0 mm 5 mps 743 mmHg 62%
    02:00 +5°C° 0 mm 5 mps 743 mmHg 64%
    03:00 +3°C° 0 mm 5 mps 743 mmHg 65%
    04:00 +3°C° 0 mm 5 mps 744 mmHg 64%
    05:00 +2°C° 0 mm 5 mps 744 mmHg 63%
    06:00 +2°C° 0 mm 5 mps 745 mmHg 62%
    07:00 +3°C° 0 mm 5 mps 745 mmHg 57%
    08:00 +4°C° 0 mm 6 mps 745 mmHg 52%
    09:00 +5°C° 0 mm 7 mps 746 mmHg 47%
    10:00 +7°C° 0 mm 6 mps 746 mmHg 45%
    11:00 +8°C° 0 mm 6 mps 746 mmHg 42%
    12:00 +9°C° 0 mm 6 mps 746 mmHg 40%
    13:00 +9°C° 0 mm 6 mps 746 mmHg 39%
    14:00 +9°C° 0 mm 6 mps 746 mmHg 39%
    15:00 +10°C° 0 mm 5 mps 746 mmHg 39%
    16:00 +9°C° 0 mm 5 mps 746 mmHg 40%
    17:00 +9°C° 0 mm 5 mps 746 mmHg 42%
    18:00 +9°C° 0 mm 5 mps 746 mmHg 43%
    19:00 +8°C° 0 mm 4 mps 746 mmHg 47%
    20:00 +7°C° 0 mm 3 mps 746 mmHg 52%
    21:00 +5°C° 0 mm 3 mps 746 mmHg 56%
    22:00 +5°C° 0 mm 3 mps 746 mmHg 56%
    23:00 +4°C° 0 mm 3 mps 747 mmHg 57%
    Show more